Wetterdaten: Freitag, 01.11.2013
Datum Zeit Temperatur Luftfeuchte Luftdruck Regen Wind Richtung Richtung Taupunkt Windchill Windben
01.11.2013 00:00 5,2 C 94 % 1024,1 hPa 0,0 l/m 0,5 km/h (0 Bft) S 180 4,3 C 5,4 C 2,3 km/h (1 Bft)
01.11.2013 00:05 5,1 C 94 % 1024,0 hPa 0,0 l/m 0,6 km/h (0 Bft) SO 135 4,2 C 5,4 C 0,0 km/h (0 Bft)
01.11.2013 00:10 5,1 C 94 % 1024,0 hPa 0,0 l/m 0,5 km/h (0 Bft) NO 45 4,2 C 5,3 C 2,7 km/h (1 Bft)
01.11.2013 00:15 5,1 C 94 % 1024,0 hPa 0,0 l/m 0,8 km/h (0 Bft) N 360 4,2 C 5,3 C 0,0 km/h (0 Bft)
01.11.2013 00:20 5,0 C 94 % 1024,0 hPa 0,0 l/m 1,3 km/h (1 Bft) N 360 4,1 C 5,3 C 0,0 km/h (0 Bft)
01.11.2013 00:25 4,9 C 94 % 1023,9 hPa 0,0 l/m 1,0 km/h (0 Bft) NO 45 4,0 C 5,3 C 0,0 km/h (0 Bft)
01.11.2013 00:30 4,8 C 94 % 1023,9 hPa 0,0 l/m 0,6 km/h (0 Bft) NO 45 3,9 C 5,1 C 4,8 km/h (1 Bft)
01.11.2013 00:35 4,8 C 94 % 1023,9 hPa 0,0 l/m 0,5 km/h (0 Bft) NW 315 3,9 C 5,0 C 0,0 km/h (0 Bft)
01.11.2013 00:39 4,8 C 94 % 1023,9 hPa 0,0 l/m 0,5 km/h (0 Bft) S-SO 157 3,9 C 5,0 C 0,0 km/h (0 Bft)
01.11.2013 00:40 4,8 C 94 % 1023,9 hPa 0,0 l/m 0,5 km/h (0 Bft) S-SO 157 3,9 C 5,0 C 0,0 km/h (0 Bft)
01.11.2013 00:45 4,6 C 94 % 1023,8 hPa 0,0 l/m 0,5 km/h (0 Bft) N-NW 337 3,7 C 4,9 C 0,0 km/h (0 Bft)
01.11.2013 00:50 4,6 C 94 % 1023,8 hPa 0,0 l/m 0,5 km/h (0 Bft) N-NW 337 3,7 C 4,8 C 0,0 km/h (0 Bft)
01.11.2013 00:55 4,5 C 94 % 1023,8 hPa 0,0 l/m 0,3 km/h (0 Bft) NW 315 3,6 C 4,7 C 1,8 km/h (1 Bft)
01.11.2013 01:00 4,4 C 94 % 1023,8 hPa 0,0 l/m 0,5 km/h (0 Bft) NW 315 3,5 C 4,7 C 1,6 km/h (1 Bft)
01.11.2013 01:05 4,4 C 94 % 1023,4 hPa 0,0 l/m 0,3 km/h (0 Bft) N-NO 22 3,5 C 4,6 C 0,0 km/h (0 Bft)
01.11.2013 01:10 4,3 C 94 % 1023,4 hPa 0,0 l/m 0,2 km/h (0 Bft) N 360 3,4 C 4,5 C 1,6 km/h (1 Bft)
01.11.2013 01:15 4,2 C 94 % 1023,4 hPa 0,0 l/m 0,5 km/h (0 Bft) N-NW 337 3,3 C 4,4 C 0,0 km/h (0 Bft)
01.11.2013 01:20 4,0 C 94 % 1023,4 hPa 0,0 l/m 0,5 km/h (0 Bft) W-NW 292 3,1 C 4,2 C 1,8 km/h (1 Bft)
01.11.2013 01:25 3,8 C 94 % 1023,3 hPa 0,0 l/m 0,3 km/h (0 Bft) N 360 2,9 C 4,0 C 0,0 km/h (0 Bft)
01.11.2013 01:30 3,8 C 94 % 1023,3 hPa 0,0 l/m 0,2 km/h (0 Bft) N 360 2,9 C 3,9 C 0,0 km/h (0 Bft)
01.11.2013 01:35 3,8 C 94 % 1023,3 hPa 0,0 l/m 0,5 km/h (0 Bft) N-NO 22 2,9 C 3,9 C 0,0 km/h (0 Bft)
01.11.2013 01:40 3,9 C 94 % 1023,3 hPa 0,0 l/m 0,5 km/h (0 Bft) N-NO 22 3,0 C 3,9 C 0,0 km/h (0 Bft)
01.11.2013 01:45 4,0 C 94 % 1023,4 hPa 0,0 l/m 0,0 km/h (0 Bft) NW 315 3,1 C 4,0 C 0,0 km/h (0 Bft)
01.11.2013 01:50 4,0 C 94 % 1023,4 hPa 0,0 l/m 0,0 km/h (0 Bft) W-NW 292 3,1 C 4,1 C 0,0 km/h (0 Bft)
01.11.2013 01:55 4,1 C 94 % 1023,4 hPa 0,0 l/m 0,5 km/h (0 Bft) W-NW 292 3,2 C 4,1 C 0,0 km/h (0 Bft)
01.11.2013 02:00 4,0 C 94 % 1023,4 hPa 0,0 l/m 0,5 km/h (0 Bft) W 270 3,1 C 4,2 C 1,6 km/h (1 Bft)
01.11.2013 02:05 4,0 C 94 % 1023,4 hPa 0,0 l/m 0,0 km/h (0 Bft) W-NW 292 3,1 C 4,1 C 0,0 km/h (0 Bft)
01.11.2013 02:10 4,0 C 94 % 1023,4 hPa 0,0 l/m 0,0 km/h (0 Bft) N 360 3,1 C 4,1 C 0,0 km/h (0 Bft)
01.11.2013 02:15 4,0 C 94 % 1023,4 hPa 0,0 l/m 0,2 km/h (0 Bft) W-SW 247 3,1 C 4,1 C 0,0 km/h (0 Bft)
01.11.2013 02:20 4,0 C 94 % 1023,4 hPa 0,0 l/m 0,3 km/h (0 Bft) S-SW 202 3,1 C 4,1 C 0,0 km/h (0 Bft)
01.11.2013 02:25 3,9 C 94 % 1023,1 hPa 0,0 l/m 0,0 km/h (0 Bft) S 180 3,0 C 4,0 C 0,0 km/h (0 Bft)
01.11.2013 02:30 3,8 C 94 % 1023,1 hPa 0,0 l/m 0,2 km/h (0 Bft) NO 45 2,9 C 3,9 C 0,0 km/h (0 Bft)
01.11.2013 02:35 3,4 C 94 % 1023,1 hPa 0,0 l/m 0,3 km/h (0 Bft) N-NO 22 2,5 C 3,6 C 0,0 km/h (0 Bft)
01.11.2013 02:40 3,2 C 94 % 1023,1 hPa 0,0 l/m 0,0 km/h (0 Bft) NW 315 2,3 C 3,4 C 0,0 km/h (0 Bft)
01.11.2013 02:45 3,3 C 94 % 1022,9 hPa 0,0 l/m 0,0 km/h (0 Bft) N-NO 22 2,4 C 3,3 C 0,0 km/h (0 Bft)
01.11.2013 02:50 3,4 C 94 % 1022,9 hPa 0,0 l/m 0,6 km/h (0 Bft) NO 45 2,5 C 3,3 C 3,1 km/h (1 Bft)
01.11.2013 02:55 3,4 C 94 % 1022,9 hPa 0,0 l/m 1,4 km/h (1 Bft) NO 45 2,5 C 3,4 C 3,1 km/h (1 Bft)
01.11.2013 03:00 3,3 C 94 % 1022,9 hPa 0,0 l/m 1,9 km/h (1 Bft) O-NO 67 2,4 C 3,4 C 0,0 km/h (0 Bft)
01.11.2013 03:05 2,9 C 95 % 1022,8 hPa 0,0 l/m 1,3 km/h (1 Bft) W 270 2,2 C 3,1 C 1,9 km/h (1 Bft)
01.11.2013 03:10 2,8 C 95 % 1022,8 hPa 0,0 l/m 0,6 km/h (0 Bft) W 270 2,1 C 3,0 C 1,9 km/h (1 Bft)
01.11.2013 03:15 2,6 C 95 % 1022,8 hPa 0,0 l/m 0,5 km/h (0 Bft) W-NW 292 1,9 C 2,6 C 0,0 km/h (0 Bft)
01.11.2013 03:20 2,5 C 95 % 1022,8 hPa 0,0 l/m 0,3 km/h (0 Bft) W-NW 292 1,8 C 2,5 C 0,0 km/h (0 Bft)
01.11.2013 03:25 2,6 C 95 % 1022,6 hPa 0,0 l/m 0,5 km/h (0 Bft) W-NW 292 1,9 C 2,4 C 0,0 km/h (0 Bft)
01.11.2013 03:30 2,3 C 95 % 1022,6 hPa 0,0 l/m 0,5 km/h (0 Bft) W-NW 292 1,6 C 2,3 C 0,0 km/h (0 Bft)
01.11.2013 03:35 2,4 C 95 % 1022,6 hPa 0,0 l/m 0,0 km/h (0 Bft) W-NW 292 1,7 C 2,3 C 0,0 km/h (0 Bft)
01.11.2013 03:40 2,4 C 95 % 1022,6 hPa 0,0 l/m 0,0 km/h (0 Bft) W-NW 292 1,7 C 2,3 C 0,0 km/h (0 Bft)
01.11.2013 03:45 2,7 C 95 % 1022,4 hPa 0,0 l/m 0,3 km/h (0 Bft) NO 45 2,0 C 2,3 C 2,1 km/h (1 Bft)
01.11.2013 03:50 2,6 C 95 % 1022,4 hPa 0,0 l/m 1,1 km/h (1 Bft) NO 45 1,9 C 2,4 C 1,8 km/h (1 Bft)
01.11.2013 03:55 2,5 C 95 % 1022,4 hPa 0,0 l/m 1,6 km/h (1 Bft) N-NO 22 1,8 C 2,4 C 0,0 km/h (0 Bft)
01.11.2013 04:00 2,5 C 95 % 1022,4 hPa 0,0 l/m 1,1 km/h (1 Bft) O-NO 67 1,8 C 2,4 C 2,4 km/h (1 Bft)
01.11.2013 04:05 2,5 C 95 % 1022,5 hPa 0,0 l/m 0,5 km/h (0 Bft) O-NO 67 1,8 C 2,4 C 1,8 km/h (1 Bft)
01.11.2013 04:10 2,5 C 95 % 1022,5 hPa 0,0 l/m 0,6 km/h (0 Bft) O 90 1,8 C 2,4 C 2,6 km/h (1 Bft)
01.11.2013 04:15 2,4 C 95 % 1022,5 hPa 0,0 l/m 0,3 km/h (0 Bft) O-NO 67 1,7 C 2,3 C 0,0 km/h (0 Bft)
01.11.2013 04:20 2,2 C 95 % 1022,5 hPa 0,0 l/m 0,3 km/h (0 Bft) O 90 1,5 C 2,3 C 0,0 km/h (0 Bft)
01.11.2013 04:25 2,1 C 95 % 1022,6 hPa 0,0 l/m 0,0 km/h (0 Bft) O 90 1,4 C 2,1 C 0,0 km/h (0 Bft)
01.11.2013 04:30 2,0 C 95 % 1022,6 hPa 0,0 l/m 0,0 km/h (0 Bft) N-NO 22 1,3 C 1,9 C 0,0 km/h (0 Bft)
01.11.2013 04:35 1,8 C 96 % 1022,6 hPa 0,0 l/m 0,0 km/h (0 Bft) O 90 1,2 C 1,7 C 0,0 km/h (0 Bft)
01.11.2013 04:40 1,7 C 95 % 1022,6 hPa 0,0 l/m 0,0 km/h (0 Bft) N 360 1,0 C 1,5 C 0,0 km/h (0 Bft)
01.11.2013 04:45 1,6 C 95 % 1022,5 hPa 0,0 l/m 0,0 km/h (0 Bft) N 360 0,9 C 1,3 C 0,0 km/h (0 Bft)
01.11.2013 04:50 1,5 C 95 % 1022,5 hPa 0,0 l/m 0,0 km/h (0 Bft) N-NO 22 0,8 C 1,2 C 0,0 km/h (0 Bft)
01.11.2013 04:55 1,6 C 95 % 1022,5 hPa 0,0 l/m 0,0 km/h (0 Bft) N 360 0,9 C 1,1 C 0,0 km/h (0 Bft)
01.11.2013 05:00 1,7 C 95 % 1022,5 hPa 0,0 l/m 0,0 km/h (0 Bft) NO 45 1,0 C 1,2 C 0,0 km/h (0 Bft)
01.11.2013 05:05 1,9 C 96 % 1022,4 hPa 0,0 l/m 0,2 km/h (0 Bft) N 360 1,3 C 1,4 C 0,0 km/h (0 Bft)
01.11.2013 05:10 1,8 C 96 % 1022,4 hPa 0,0 l/m 0,2 km/h (0 Bft) N 360 1,2 C 1,5 C 0,0 km/h (0 Bft)
01.11.2013 05:15 1,7 C 96 % 1022,4 hPa 0,0 l/m 0,2 km/h (0 Bft) N-NO 22 1,1 C 1,4 C 2,3 km/h (1 Bft)
01.11.2013 05:20 1,5 C 96 % 1022,4 hPa 0,0 l/m 0,2 km/h (0 Bft) N-NW 337 0,9 C 1,5 C 0,0 km/h (0 Bft)
01.11.2013 05:25 1,6 C 96 % 1022,3 hPa 0,0 l/m 0,2 km/h (0 Bft) N 360 1,0 C 1,5 C 0,0 km/h (0 Bft)
01.11.2013 05:30 1,8 C 96 % 1022,3 hPa 0,0 l/m 0,0 km/h (0 Bft) N-NO 22 1,2 C 1,5 C 0,0 km/h (0 Bft)
01.11.2013 05:35 2,4 C 96 % 1022,3 hPa 0,0 l/m 0,0 km/h (0 Bft) N-NW 337 1,8 C 1,5 C 0,0 km/h (0 Bft)
01.11.2013 05:39 2,1 C 96 % 1022,3 hPa 0,0 l/m 0,2 km/h (0 Bft) N 360 1,5 C 1,7 C 0,0 km/h (0 Bft)
01.11.2013 05:40 2,1 C 96 % 1022,3 hPa 0,0 l/m 0,2 km/h (0 Bft) N 360 1,5 C 1,7 C 0,0 km/h (0 Bft)
01.11.2013 05:45 1,7 C 96 % 1022,4 hPa 0,0 l/m 0,2 km/h (0 Bft) N-NW 337 1,1 C 1,6 C 0,0 km/h (0 Bft)
01.11.2013 05:50 1,6 C 96 % 1022,4 hPa 0,0 l/m 0,0 km/h (0 Bft) N 360 1,0 C 1,5 C 0,0 km/h (0 Bft)
01.11.2013 05:55 1,8 C 96 % 1022,4 hPa 0,0 l/m 0,6 km/h (0 Bft) W-NW 292 1,2 C 1,7 C 2,4 km/h (1 Bft)
01.11.2013 06:00 1,7 C 96 % 1022,4 hPa 0,0 l/m 0,8 km/h (0 Bft) N-NW 337 1,1 C 1,8 C 0,0 km/h (0 Bft)
01.11.2013 06:05 1,7 C 96 % 1022,5 hPa 0,0 l/m 0,5 km/h (0 Bft) N 360 1,1 C 1,6 C 0,0 km/h (0 Bft)
01.11.2013 06:10 1,8 C 96 % 1022,5 hPa 0,0 l/m 0,2 km/h (0 Bft) W-NW 292 1,2 C 1,7 C 0,0 km/h (0 Bft)
01.11.2013 06:15 2,1 C 96 % 1022,5 hPa 0,0 l/m 0,8 km/h (0 Bft) NO 45 1,5 C 1,9 C 4,5 km/h (1 Bft)
01.11.2013 06:20 2,3 C 96 % 1022,5 hPa 0,0 l/m 1,1 km/h (1 Bft) NO 45 1,7 C 2,2 C 0,0 km/h (0 Bft)
01.11.2013 06:25 2,0 C 96 % 1022,3 hPa 0,0 l/m 1,0 km/h (0 Bft) O-NO 67 1,4 C 2,2 C 0,0 km/h (0 Bft)
01.11.2013 06:30 2,0 C 96 % 1022,3 hPa 0,0 l/m 0,2 km/h (0 Bft) S 180 1,4 C 2,0 C 1,8 km/h (1 Bft)
01.11.2013 06:35 1,9 C 96 % 1022,3 hPa 0,0 l/m 0,2 km/h (0 Bft) S-SO 157 1,3 C 1,9 C 0,0 km/h (0 Bft)
01.11.2013 06:40 2,0 C 96 % 1022,3 hPa 0,0 l/m 0,2 km/h (0 Bft) N 360 1,4 C 1,8 C 0,0 km/h (0 Bft)
01.11.2013 06:45 1,8 C 96 % 1022,3 hPa 0,0 l/m 0,2 km/h (0 Bft) W-SW 247 1,2 C 1,8 C 0,0 km/h (0 Bft)
01.11.2013 06:50 2,1 C 96 % 1022,3 hPa 0,0 l/m 0,2 km/h (0 Bft) NO 45 1,5 C 1,6 C 0,0 km/h (0 Bft)
01.11.2013 06:55 1,7 C 96 % 1022,3 hPa 0,0 l/m 0,2 km/h (0 Bft) SW 225 1,1 C 1,6 C 1,9 km/h (1 Bft)
01.11.2013 07:00 1,6 C 96 % 1022,3 hPa 0,0 l/m 0,3 km/h (0 Bft) NO 45 1,0 C 1,5 C 1,6 km/h (1 Bft)
01.11.2013 07:05 2,0 C 96 % 1022,4 hPa 0,0 l/m 0,3 km/h (0 Bft) NO 45 1,4 C 1,5 C 0,0 km/h (0 Bft)
01.11.2013 07:10 2,6 C 96 % 1022,4 hPa 0,0 l/m 0,3 km/h (0 Bft) NO 45 2,0 C 1,5 C 0,0 km/h (0 Bft)
01.11.2013 07:15 2,3 C 96 % 1022,4 hPa 0,0 l/m 0,3 km/h (0 Bft) NO 45 1,7 C 1,5 C 0,0 km/h (0 Bft)
01.11.2013 07:20 2,3 C 96 % 1022,4 hPa 0,0 l/m 0,0 km/h (0 Bft) NO 45 1,7 C 1,5 C 0,0 km/h (0 Bft)
01.11.2013 07:25 2,5 C 96 % 1022,4 hPa 0,0 l/m 0,0 km/h (0 Bft) NO 45 1,9 C 1,5 C 0,0 km/h (0 Bft)
01.11.2013 07:29 2,6 C 96 % 1022,4 hPa 0,0 l/m 0,0 km/h (0 Bft) NO 45 2,0 C 1,5 C 0,0 km/h (0 Bft)
01.11.2013 07:30 2,6 C 96 % 1022,4 hPa 0,0 l/m 0,0 km/h (0 Bft) NO 45 2,0 C 1,5 C 0,0 km/h (0 Bft)
01.11.2013 07:35 2,7 C 96 % 1022,4 hPa 0,0 l/m 0,0 km/h (0 Bft) NO 45 2,1 C 1,5 C 0,0 km/h (0 Bft)
01.11.2013 07:40 2,8 C 96 % 1022,4 hPa 0,0 l/m 0,0 km/h (0 Bft) NO 45 2,2 C 1,5 C 0,0 km/h (0 Bft)
01.11.2013 07:45 2,9 C 96 % 1022,4 hPa 0,0 l/m 0,0 km/h (0 Bft) NO 45 2,3 C 1,5 C 0,0 km/h (0 Bft)
01.11.2013 07:50 3,0 C 95 % 1022,4 hPa 0,0 l/m 0,0 km/h (0 Bft) NO 45 2,3 C 1,5 C 0,0 km/h (0 Bft)
01.11.2013 07:55 3,1 C 95 % 1022,4 hPa 0,0 l/m 0,0 km/h (0 Bft) NO 45 2,4 C 1,5 C 0,0 km/h (0 Bft)
01.11.2013 08:00 3,2 C 95 % 1022,4 hPa 0,0 l/m 0,0 km/h (0 Bft) NO 45 2,5 C 1,5 C 0,0 km/h (0 Bft)
01.11.2013 08:05 3,5 C 95 % 1022,4 hPa 0,0 l/m 0,0 km/h (0 Bft) NO 45 2,8 C 1,5 C 0,0 km/h (0 Bft)
01.11.2013 08:10 3,5 C 95 % 1022,4 hPa 0,0 l/m 0,0 km/h (0 Bft) NO 45 2,8 C 1,5 C 0,0 km/h (0 Bft)
01.11.2013 08:15 3,7 C 95 % 1022,4 hPa 0,0 l/m 0,0 km/h (0 Bft) NO 45 3,0 C 1,5 C 0,0 km/h (0 Bft)
01.11.2013 08:20 4,0 C 95 % 1022,4 hPa 0,0 l/m 0,0 km/h (0 Bft) NO 45 3,3 C 1,5 C 0,0 km/h (0 Bft)
01.11.2013 08:25 4,2 C 95 % 1022,5 hPa 0,0 l/m 0,0 km/h (0 Bft) NO 45 3,5 C 1,5 C 0,0 km/h (0 Bft)
01.11.2013 08:30 4,4 C 95 % 1022,5 hPa 0,0 l/m 0,0 km/h (0 Bft) NO 45 3,7 C 1,5 C 0,0 km/h (0 Bft)
01.11.2013 08:35 4,9 C 95 % 1022,5 hPa 0,0 l/m 0,0 km/h (0 Bft) NO 45 4,2 C 1,5 C 0,0 km/h (0 Bft)
01.11.2013 08:40 5,2 C 95 % 1022,5 hPa 0,0 l/m 0,0 km/h (0 Bft) NO 45 4,5 C 1,5 C 0,0 km/h (0 Bft)
01.11.2013 08:45 5,4 C 95 % 1022,7 hPa 0,0 l/m 0,0 km/h (0 Bft) NO 45 4,7 C 1,5 C 0,0 km/h (0 Bft)
01.11.2013 08:50 5,6 C 95 % 1022,7 hPa 0,0 l/m 0,0 km/h (0 Bft) NO 45 4,9 C 1,5 C 0,0 km/h (0 Bft)
01.11.2013 08:55 5,9 C 95 % 1022,7 hPa 0,0 l/m 0,0 km/h (0 Bft) NO 45 5,2 C 1,5 C 0,0 km/h (0 Bft)
01.11.2013 09:00 6,1 C 94 % 1022,7 hPa 0,0 l/m 0,0 km/h (0 Bft) NO 45 5,2 C 1,5 C 0,0 km/h (0 Bft)
01.11.2013 09:05 6,6 C 94 % 1022,4 hPa 0,0 l/m 0,0 km/h (0 Bft) NO 45 5,7 C 1,5 C 0,0 km/h (0 Bft)
01.11.2013 09:10 6,9 C 94 % 1022,4 hPa 0,0 l/m 0,0 km/h (0 Bft) NO 45 6,0 C 1,5 C 0,0 km/h (0 Bft)
01.11.2013 09:15 7,3 C 94 % 1022,4 hPa 0,0 l/m 0,0 km/h (0 Bft) NO 45 6,4 C 1,5 C 0,0 km/h (0 Bft)
01.11.2013 09:20 7,6 C 94 % 1022,4 hPa 0,0 l/m 0,0 km/h (0 Bft) NO 45 6,7 C 1,5 C 0,0 km/h (0 Bft)
01.11.2013 09:25 8,0 C 93 % 1022,4 hPa 0,0 l/m 0,0 km/h (0 Bft) NO 45 6,9 C 1,5 C 0,0 km/h (0 Bft)
01.11.2013 09:30 8,0 C 93 % 1022,4 hPa 0,0 l/m 0,0 km/h (0 Bft) NO 45 6,9 C 1,5 C 0,0 km/h (0 Bft)
01.11.2013 09:35 8,4 C 93 % 1022,4 hPa 0,0 l/m 0,0 km/h (0 Bft) NO 45 7,3 C 1,5 C 0,0 km/h (0 Bft)
01.11.2013 09:40 8,6 C 93 % 1022,4 hPa 0,0 l/m 0,0 km/h (0 Bft) NO 45 7,5 C 1,5 C 0,0 km/h (0 Bft)
01.11.2013 09:45 9,2 C 93 % 1022,4 hPa 0,0 l/m 0,0 km/h (0 Bft) NO 45 8,1 C 1,5 C 0,0 km/h (0 Bft)
01.11.2013 09:50 9,2 C 93 % 1022,4 hPa 0,0 l/m 0,0 km/h (0 Bft) NO 45 8,1 C 1,5 C 0,0 km/h (0 Bft)
01.11.2013 09:55 9,6 C 93 % 1022,4 hPa 0,0 l/m 0,0 km/h (0 Bft) NO 45 8,5 C 1,5 C 0,0 km/h (0 Bft)
01.11.2013 10:00 9,9 C 93 % 1022,4 hPa 0,0 l/m 0,0 km/h (0 Bft) NO 45 8,8 C 1,5 C 0,0 km/h (0 Bft)
01.11.2013 10:05 10,0 C 93 % 1022,9 hPa 0,0 l/m 0,0 km/h (0 Bft) NO 45 8,9 C 1,5 C 0,0 km/h (0 Bft)
01.11.2013 10:10 10,1 C 93 % 1022,9 hPa 0,0 l/m 0,0 km/h (0 Bft) NO 45 9,0 C 1,5 C 0,0 km/h (0 Bft)
01.11.2013 10:15 10,3 C 92 % 1022,9 hPa 0,0 l/m 0,0 km/h (0 Bft) NO 45 9,1 C 1,5 C 0,0 km/h (0 Bft)
01.11.2013 10:20 10,6 C 92 % 1022,9 hPa 0,0 l/m 0,0 km/h (0 Bft) NO 45 9,4 C 1,5 C 0,0 km/h (0 Bft)
01.11.2013 10:25 10,8 C 92 % 1022,6 hPa 0,0 l/m 0,0 km/h (0 Bft) NO 45 9,6 C 1,5 C 0,0 km/h (0 Bft)
01.11.2013 10:30 11,1 C 92 % 1022,6 hPa 0,0 l/m 0,0 km/h (0 Bft) NO 45 9,8 C 1,5 C 0,0 km/h (0 Bft)
01.11.2013 10:35 11,4 C 91 % 1022,6 hPa 0,0 l/m 0,0 km/h (0 Bft) NO 45 10,0 C 1,5 C 0,0 km/h (0 Bft)
01.11.2013 10:40 11,4 C 90 % 1022,6 hPa 0,0 l/m 0,0 km/h (0 Bft) NO 45 9,8 C 1,5 C 0,0 km/h (0 Bft)
01.11.2013 10:45 11,9 C 89 % 1023,1 hPa 0,0 l/m 0,0 km/h (0 Bft) NO 45 10,1 C 1,5 C 0,0 km/h (0 Bft)
01.11.2013 10:50 12,1 C 89 % 1023,1 hPa 0,0 l/m 0,0 km/h (0 Bft) NO 45 10,3 C 1,5 C 0,0 km/h (0 Bft)
01.11.2013 10:55 12,2 C 88 % 1023,1 hPa 0,0 l/m 0,0 km/h (0 Bft) NO 45 10,3 C 1,5 C 0,0 km/h (0 Bft)
01.11.2013 11:00 12,2 C 87 % 1023,1 hPa 0,0 l/m 0,0 km/h (0 Bft) NO 45 10,1 C 1,5 C 0,0 km/h (0 Bft)
01.11.2013 11:05 12,4 C 86 % 1023,0 hPa 0,0 l/m 0,0 km/h (0 Bft) NO 45 10,1 C 1,5 C 0,0 km/h (0 Bft)
01.11.2013 11:10 12,6 C 84 % 1023,0 hPa 0,0 l/m 0,0 km/h (0 Bft) NO 45 10,0 C 1,5 C 0,0 km/h (0 Bft)
01.11.2013 11:15 13,1 C 83 % 1023,0 hPa 0,0 l/m 0,0 km/h (0 Bft) NO 45 10,3 C 1,5 C 0,0 km/h (0 Bft)
01.11.2013 11:20 13,2 C 82 % 1023,0 hPa 0,0 l/m 0,0 km/h (0 Bft) NO 45 10,2 C 1,5 C 0,0 km/h (0 Bft)
01.11.2013 11:25 13,3 C 80 % 1022,8 hPa 0,0 l/m 0,0 km/h (0 Bft) NO 45 9,9 C 1,5 C 0,0 km/h (0 Bft)
01.11.2013 11:30 13,1 C 78 % 1022,8 hPa 0,0 l/m 0,0 km/h (0 Bft) NO 45 9,4 C 1,5 C 0,0 km/h (0 Bft)
01.11.2013 11:35 13,4 C 79 % 1022,8 hPa 0,0 l/m 0,0 km/h (0 Bft) NO 45 9,8 C 1,5 C 0,0 km/h (0 Bft)
01.11.2013 11:40 13,4 C 78 % 1022,8 hPa 0,0 l/m 0,0 km/h (0 Bft) NO 45 9,6 C 1,5 C 0,0 km/h (0 Bft)
01.11.2013 11:45 13,3 C 77 % 1022,6 hPa 0,0 l/m 0,0 km/h (0 Bft) NO 45 9,4 C 1,5 C 0,0 km/h (0 Bft)
01.11.2013 11:50 13,3 C 75 % 1022,6 hPa 0,0 l/m 0,0 km/h (0 Bft) NO 45 9,0 C 1,5 C 0,0 km/h (0 Bft)
01.11.2013 11:55 13,3 C 74 % 1022,6 hPa 0,0 l/m 0,0 km/h (0 Bft) NO 45 8,8 C 1,5 C 0,0 km/h (0 Bft)
01.11.2013 12:00 13,3 C 73 % 1022,6 hPa 0,0 l/m 0,0 km/h (0 Bft) NO 45 8,6 C 1,5 C 0,0 km/h (0 Bft)
01.11.2013 12:05 13,5 C 73 % 1022,4 hPa 0,0 l/m 0,0 km/h (0 Bft) NO 45 8,8 C 1,5 C 0,0 km/h (0 Bft)
01.11.2013 12:10 13,6 C 73 % 1022,4 hPa 0,0 l/m 0,0 km/h (0 Bft) NO 45 8,9 C 1,5 C 0,0 km/h (0 Bft)
01.11.2013 12:15 13,4 C 72 % 1022,4 hPa 0,0 l/m 0,0 km/h (0 Bft) NO 45 8,5 C 1,5 C 0,0 km/h (0 Bft)
01.11.2013 12:20 13,5 C 71 % 1022,4 hPa 0,0 l/m 0,0 km/h (0 Bft) NO 45 8,3 C 1,5 C 0,0 km/h (0 Bft)
01.11.2013 12:25 13,7 C 72 % 1022,3 hPa 0,0 l/m 0,0 km/h (0 Bft) NO 45 8,7 C 1,5 C 0,0 km/h (0 Bft)
01.11.2013 12:30 13,5 C 71 % 1022,3 hPa 0,0 l/m 0,0 km/h (0 Bft) NO 45 8,3 C 1,5 C 0,0 km/h (0 Bft)
01.11.2013 12:35 13,6 C 72 % 1022,3 hPa 0,0 l/m 0,0 km/h (0 Bft) NO 45 8,6 C 1,5 C 0,0 km/h (0 Bft)
01.11.2013 12:40 13,5 C 70 % 1022,3 hPa 0,0 l/m 0,0 km/h (0 Bft) NO 45 8,1 C 1,5 C 0,0 km/h (0 Bft)
01.11.2013 12:45 13,4 C 70 % 1022,2 hPa 0,0 l/m 0,0 km/h (0 Bft) NO 45 8,0 C 1,5 C 0,0 km/h (0 Bft)
01.11.2013 12:50 13,5 C 70 % 1022,2 hPa 0,0 l/m 0,0 km/h (0 Bft) NO 45 8,1 C 1,5 C 0,0 km/h (0 Bft)
01.11.2013 12:55 13,7 C 71 % 1022,2 hPa 0,0 l/m 0,0 km/h (0 Bft) NO 45 8,5 C 1,5 C 0,0 km/h (0 Bft)
01.11.2013 13:00 13,6 C 71 % 1022,2 hPa 0,0 l/m 0,0 km/h (0 Bft) NO 45 8,4 C 1,5 C 0,0 km/h (0 Bft)
01.11.2013 13:05 13,9 C 72 % 1021,9 hPa 0,0 l/m 0,0 km/h (0 Bft) NO 45 8,9 C 1,5 C 0,0 km/h (0 Bft)
01.11.2013 13:10 14,1 C 72 % 1021,9 hPa 0,0 l/m 0,0 km/h (0 Bft) NO 45 9,1 C 1,5 C 0,0 km/h (0 Bft)
01.11.2013 13:15 13,8 C 71 % 1021,9 hPa 0,0 l/m 0,0 km/h (0 Bft) NO 45 8,6 C 1,5 C 0,0 km/h (0 Bft)
01.11.2013 13:20 13,8 C 71 % 1021,9 hPa 0,0 l/m 0,0 km/h (0 Bft) NO 45 8,6 C 1,5 C 0,0 km/h (0 Bft)
01.11.2013 13:25 13,7 C 72 % 1021,7 hPa 0,0 l/m 0,0 km/h (0 Bft) NO 45 8,7 C 1,5 C 0,0 km/h (0 Bft)
01.11.2013 13:30 13,7 C 73 % 1021,7 hPa 0,0 l/m 0,0 km/h (0 Bft) NO 45 8,9 C 1,5 C 0,0 km/h (0 Bft)
01.11.2013 13:35 13,5 C 73 % 1021,7 hPa 0,0 l/m 0,0 km/h (0 Bft) NO 45 8,8 C 1,5 C 0,0 km/h (0 Bft)
01.11.2013 13:40 13,6 C 74 % 1021,7 hPa 0,0 l/m 0,0 km/h (0 Bft) NO 45 9,1 C 1,5 C 0,0 km/h (0 Bft)
01.11.2013 13:45 13,6 C 74 % 1021,2 hPa 0,0 l/m 0,0 km/h (0 Bft) NO 45 9,1 C 1,5 C 0,0 km/h (0 Bft)
01.11.2013 13:50 13,5 C 74 % 1021,2 hPa 0,0 l/m 0,0 km/h (0 Bft) NO 45 9,0 C 1,5 C 0,0 km/h (0 Bft)
01.11.2013 13:55 13,4 C 75 % 1021,2 hPa 0,0 l/m 0,0 km/h (0 Bft) NO 45 9,1 C 1,5 C 0,0 km/h (0 Bft)
01.11.2013 14:00 13,3 C 75 % 1021,2 hPa 0,0 l/m 0,0 km/h (0 Bft) NO 45 9,0 C 1,5 C 0,0 km/h (0 Bft)
01.11.2013 14:05 13,1 C 75 % 1020,8 hPa 0,0 l/m 0,0 km/h (0 Bft) NO 45 8,8 C 1,5 C 0,0 km/h (0 Bft)
01.11.2013 14:10 13,1 C 74 % 1020,8 hPa 0,0 l/m 0,0 km/h (0 Bft) NO 45 8,6 C 1,5 C 0,0 km/h (0 Bft)
01.11.2013 14:15 13,1 C 75 % 1020,8 hPa 0,0 l/m 0,0 km/h (0 Bft) NO 45 8,8 C 1,5 C 0,0 km/h (0 Bft)
01.11.2013 14:20 13,1 C 75 % 1020,8 hPa 0,0 l/m 0,0 km/h (0 Bft) NO 45 8,8 C 1,5 C 0,0 km/h (0 Bft)
01.11.2013 14:25 13,0 C 75 % 1020,6 hPa 0,0 l/m 0,0 km/h (0 Bft) NO 45 8,7 C 1,5 C 0,0 km/h (0 Bft)
01.11.2013 14:30 13,0 C 75 % 1020,6 hPa 0,0 l/m 0,0 km/h (0 Bft) NO 45 8,7 C 1,5 C 0,0 km/h (0 Bft)
01.11.2013 14:35 12,9 C 76 % 1020,6 hPa 0,0 l/m 0,0 km/h (0 Bft) NO 45 8,8 C 1,5 C 0,0 km/h (0 Bft)
01.11.2013 14:40 12,9 C 77 % 1020,6 hPa 0,0 l/m 0,0 km/h (0 Bft) NO 45 9,0 C 1,5 C 0,0 km/h (0 Bft)
01.11.2013 14:45 12,9 C 76 % 1020,4 hPa 0,0 l/m 0,0 km/h (0 Bft) NO 45 8,8 C 1,5 C 0,0 km/h (0 Bft)
01.11.2013 14:50 12,8 C 76 % 1020,4 hPa 0,0 l/m 0,0 km/h (0 Bft) NO 45 8,7 C 1,5 C 0,0 km/h (0 Bft)
01.11.2013 14:55 12,7 C 76 % 1020,4 hPa 0,0 l/m 0,0 km/h (0 Bft) NO 45 8,6 C 1,5 C 0,0 km/h (0 Bft)
01.11.2013 15:00 12,7 C 77 % 1020,4 hPa 0,0 l/m 0,0 km/h (0 Bft) NO 45 8,8 C 1,5 C 0,0 km/h (0 Bft)
01.11.2013 15:05 12,5 C 77 % 1020,6 hPa 0,0 l/m 0,0 km/h (0 Bft) NO 45 8,6 C 1,5 C 0,0 km/h (0 Bft)
01.11.2013 15:10 12,4 C 77 % 1020,6 hPa 0,0 l/m 0,0 km/h (0 Bft) NO 45 8,5 C 1,5 C 0,0 km/h (0 Bft)
01.11.2013 15:15 12,3 C 77 % 1020,6 hPa 0,0 l/m 0,0 km/h (0 Bft) NO 45 8,4 C 1,5 C 0,0 km/h (0 Bft)
01.11.2013 15:20 12,3 C 78 % 1020,6 hPa 0,0 l/m 0,0 km/h (0 Bft) NO 45 8,6 C 1,5 C 0,0 km/h (0 Bft)
01.11.2013 15:25 12,1 C 78 % 1020,2 hPa 0,0 l/m 0,0 km/h (0 Bft) NO 45 8,4 C 1,5 C 0,0 km/h (0 Bft)
01.11.2013 15:30 12,1 C 78 % 1020,2 hPa 0,0 l/m 0,0 km/h (0 Bft) NO 45 8,4 C 1,5 C 0,0 km/h (0 Bft)
01.11.2013 15:35 12,1 C 79 % 1020,2 hPa 0,0 l/m 0,0 km/h (0 Bft) NO 45 8,6 C 1,5 C 0,0 km/h (0 Bft)
01.11.2013 15:40 12,0 C 79 % 1020,2 hPa 0,0 l/m 0,0 km/h (0 Bft) NO 45 8,5 C 1,5 C 0,0 km/h (0 Bft)
01.11.2013 15:45 11,8 C 79 % 1020,3 hPa 0,0 l/m 0,0 km/h (0 Bft) NO 45 8,3 C 1,5 C 0,0 km/h (0 Bft)
01.11.2013 15:50 11,7 C 80 % 1020,3 hPa 0,0 l/m 0,0 km/h (0 Bft) NO 45 8,4 C 1,5 C 0,0 km/h (0 Bft)
01.11.2013 15:55 11,4 C 81 % 1020,3 hPa 0,0 l/m 0,2 km/h (0 Bft) N-NO 22 8,3 C 12,1 C 1,6 km/h (1 Bft)
01.11.2013 16:00 11,2 C 81 % 1020,3 hPa 0,0 l/m 0,2 km/h (0 Bft) N-NO 22 8,1 C 11,9 C 0,0 km/h (0 Bft)
01.11.2013 16:05 11,0 C 82 % 1019,9 hPa 0,0 l/m 0,3 km/h (0 Bft) N-NO 22 8,0 C 11,6 C 1,6 km/h (1 Bft)
01.11.2013 16:10 11,0 C 83 % 1019,9 hPa 0,0 l/m 0,6 km/h (0 Bft) N-NO 22 8,2 C 11,4 C 2,6 km/h (1 Bft)
01.11.2013 16:15 10,9 C 83 % 1019,9 hPa 0,0 l/m 2,1 km/h (1 Bft) N-NO 22 8,1 C 11,2 C 2,7 km/h (1 Bft)
01.11.2013 16:20 10,8 C 83 % 1019,9 hPa 0,0 l/m 2,9 km/h (1 Bft) N-NO 22 8,0 C 11,1 C 2,7 km/h (1 Bft)
01.11.2013 16:25 10,5 C 83 % 1019,4 hPa 0,0 l/m 1,3 km/h (1 Bft) N-NO 22 7,7 C 11,0 C 0,0 km/h (0 Bft)
01.11.2013 16:30 10,4 C 83 % 1019,4 hPa 0,0 l/m 0,3 km/h (0 Bft) N-NO 22 7,6 C 10,9 C 0,0 km/h (0 Bft)
01.11.2013 16:35 10,4 C 84 % 1019,4 hPa 0,0 l/m 0,2 km/h (0 Bft) N-NO 22 7,8 C 10,7 C 0,0 km/h (0 Bft)
01.11.2013 16:40 10,4 C 84 % 1019,4 hPa 0,0 l/m 0,2 km/h (0 Bft) N-NO 22 7,8 C 10,6 C 1,9 km/h (1 Bft)
01.11.2013 16:45 10,4 C 84 % 1019,1 hPa 0,0 l/m 0,2 km/h (0 Bft) N-NO 22 7,8 C 10,4 C 1,6 km/h (1 Bft)
01.11.2013 16:50 10,0 C 84 % 1019,1 hPa 0,0 l/m 0,2 km/h (0 Bft) N-NO 22 7,4 C 10,3 C 0,0 km/h (0 Bft)
01.11.2013 16:55 9,8 C 84 % 1019,1 hPa 0,0 l/m 0,0 km/h (0 Bft) N-NO 22 7,2 C 10,1 C 0,0 km/h (0 Bft)
01.11.2013 17:00 9,8 C 85 % 1019,1 hPa 0,0 l/m 0,2 km/h (0 Bft) N-NO 22 7,4 C 10,0 C 1,9 km/h (1 Bft)
01.11.2013 17:05 9,7 C 85 % 1019,4 hPa 0,0 l/m 0,2 km/h (0 Bft) N-NO 22 7,3 C 10,0 C 0,0 km/h (0 Bft)
01.11.2013 17:10 9,7 C 86 % 1019,4 hPa 0,0 l/m 0,2 km/h (0 Bft) N-NO 22 7,5 C 9,9 C 0,0 km/h (0 Bft)
01.11.2013 17:15 9,7 C 86 % 1019,4 hPa 0,0 l/m 0,6 km/h (0 Bft) N-NO 22 7,5 C 9,7 C 3,2 km/h (1 Bft)
01.11.2013 17:20 9,7 C 86 % 1019,4 hPa 0,0 l/m 1,9 km/h (1 Bft) N-NO 22 7,5 C 9,7 C 3,4 km/h (1 Bft)
01.11.2013 17:25 9,6 C 87 % 1019,2 hPa 0,0 l/m 3,1 km/h (1 Bft) NO 45 7,5 C 9,7 C 3,1 km/h (1 Bft)
01.11.2013 17:30 9,5 C 87 % 1019,2 hPa 0,0 l/m 3,5 km/h (1 Bft) NO 45 7,4 C 9,5 C 5,5 km/h (1 Bft)
01.11.2013 17:35 9,2 C 87 % 1019,2 hPa 0,0 l/m 3,5 km/h (1 Bft) O 90 7,2 C 9,3 C 3,2 km/h (1 Bft)
01.11.2013 17:40 9,1 C 87 % 1019,2 hPa 0,0 l/m 2,3 km/h (1 Bft) SO 135 7,1 C 9,2 C 0,0 km/h (0 Bft)
01.11.2013 17:45 8,7 C 87 % 1018,8 hPa 0,0 l/m 0,6 km/h (0 Bft) O-SO 112 6,7 C 8,8 C 0,0 km/h (0 Bft)
01.11.2013 17:50 8,6 C 88 % 1018,8 hPa 0,0 l/m 1,0 km/h (0 Bft) SO 135 6,7 C 8,8 C 4,3 km/h (1 Bft)
01.11.2013 17:55 8,8 C 88 % 1018,8 hPa 0,0 l/m 2,1 km/h (1 Bft) O 90 6,9 C 8,8 C 1,9 km/h (1 Bft)
01.11.2013 18:00 8,9 C 89 % 1018,8 hPa 0,0 l/m 2,7 km/h (1 Bft) O-SO 112 7,2 C 8,8 C 5,6 km/h (1 Bft)
01.11.2013 18:05 8,8 C 89 % 1018,9 hPa 0,0 l/m 3,2 km/h (1 Bft) NO 45 7,1 C 8,8 C 3,1 km/h (1 Bft)
01.11.2013 18:10 8,8 C 89 % 1018,9 hPa 0,0 l/m 3,2 km/h (1 Bft) NO 45 7,1 C 8,8 C 3,1 km/h (1 Bft)
01.11.2013 18:15 8,7 C 89 % 1018,9 hPa 0,0 l/m 3,2 km/h (1 Bft) O-SO 112 7,0 C 8,8 C 2,3 km/h (1 Bft)
01.11.2013 18:20 8,3 C 89 % 1018,9 hPa 0,0 l/m 1,3 km/h (1 Bft) O 90 6,6 C 8,5 C 0,0 km/h (0 Bft)
01.11.2013 18:25 8,4 C 89 % 1018,9 hPa 0,0 l/m 0,6 km/h (0 Bft) NO 45 6,7 C 8,3 C 0,0 km/h (0 Bft)
01.11.2013 18:30 8,4 C 90 % 1018,5 hPa 0,0 l/m 1,4 km/h (1 Bft) O-NO 67 6,9 C 8,2 C 3,5 km/h (1 Bft)
01.11.2013 18:35 8,7 C 90 % 1018,5 hPa 0,0 l/m 2,4 km/h (1 Bft) O 90 7,2 C 8,3 C 4,0 km/h (1 Bft)
01.11.2013 18:40 8,6 C 90 % 1018,5 hPa 0,0 l/m 2,6 km/h (1 Bft) NO 45 7,1 C 8,4 C 3,4 km/h (1 Bft)
01.11.2013 18:45 8,3 C 90 % 1018,5 hPa 0,0 l/m 1,8 km/h (1 Bft) NO 45 6,8 C 8,3 C 4,3 km/h (1 Bft)
01.11.2013 18:50 8,5 C 90 % 1018,4 hPa 0,0 l/m 1,9 km/h (1 Bft) W-SW 247 7,0 C 8,3 C 4,2 km/h (1 Bft)
01.11.2013 18:55 8,2 C 89 % 1018,4 hPa 0,0 l/m 2,1 km/h (1 Bft) SW 225 6,5 C 8,3 C 0,0 km/h (0 Bft)
01.11.2013 19:00 7,8 C 89 % 1018,4 hPa 0,0 l/m 1,1 km/h (1 Bft) S-SO 157 6,1 C 7,9 C 0,0 km/h (0 Bft)
01.11.2013 19:05 7,9 C 90 % 1018,4 hPa 0,0 l/m 0,6 km/h (0 Bft) NO 45 6,4 C 7,9 C 1,6 km/h (1 Bft)
01.11.2013 19:10 8,0 C 90 % 1018,3 hPa 0,0 l/m 0,5 km/h (0 Bft) O-NO 67 6,5 C 8,0 C 0,0 km/h (0 Bft)
01.11.2013 19:15 7,8 C 90 % 1018,3 hPa 0,0 l/m 0,5 km/h (0 Bft) O-NO 67 6,3 C 7,9 C 0,0 km/h (0 Bft)
01.11.2013 19:20 7,8 C 90 % 1018,3 hPa 0,0 l/m 0,0 km/h (0 Bft) O-NO 67 6,3 C 7,9 C 0,0 km/h (0 Bft)
01.11.2013 19:25 7,7 C 90 % 1018,3 hPa 0,0 l/m 0,0 km/h (0 Bft) O-NO 67 6,2 C 7,9 C 0,0 km/h (0 Bft)
01.11.2013 19:30 7,7 C 90 % 1018,0 hPa 0,0 l/m 0,0 km/h (0 Bft) O-NO 67 6,2 C 7,9 C 0,0 km/h (0 Bft)
01.11.2013 19:35 7,7 C 90 % 1018,0 hPa 0,0 l/m 0,0 km/h (0 Bft) O-NO 67 6,2 C 7,9 C 0,0 km/h (0 Bft)
01.11.2013 19:40 7,7 C 90 % 1018,0 hPa 0,0 l/m 0,6 km/h (0 Bft) S 180 6,2 C 7,9 C 2,6 km/h (1 Bft)
01.11.2013 19:45 7,9 C 90 % 1018,0 hPa 0,0 l/m 2,1 km/h (1 Bft) S-SO 157 6,4 C 7,9 C 6,8 km/h (2 Bft)
01.11.2013 19:50 8,1 C 90 % 1018,2 hPa 0,0 l/m 3,4 km/h (1 Bft) O 90 6,6 C 8,1 C 3,7 km/h (1 Bft)
01.11.2013 19:55 8,2 C 90 % 1018,2 hPa 0,0 l/m 3,2 km/h (1 Bft) O 90 6,7 C 8,1 C 2,9 km/h (1 Bft)
01.11.2013 20:00 7,9 C 91 % 1018,2 hPa 0,0 l/m 1,8 km/h (1 Bft) O 90 6,5 C 8,0 C 0,0 km/h (0 Bft)
01.11.2013 20:05 7,9 C 90 % 1018,2 hPa 0,0 l/m 1,6 km/h (1 Bft) S-SO 157 6,4 C 7,9 C 3,1 km/h (1 Bft)
01.11.2013 20:10 8,3 C 90 % 1018,1 hPa 0,0 l/m 2,6 km/h (1 Bft) O 90 6,8 C 8,1 C 4,8 km/h (1 Bft)
01.11.2013 20:15 8,4 C 90 % 1018,1 hPa 0,0 l/m 3,4 km/h (1 Bft) NO 45 6,9 C 8,2 C 4,2 km/h (1 Bft)
01.11.2013 20:20 8,3 C 90 % 1018,1 hPa 0,0 l/m 3,9 km/h (1 Bft) NO 45 6,8 C 8,2 C 4,0 km/h (1 Bft)
01.11.2013 20:25 8,1 C 90 % 1018,1 hPa 0,0 l/m 3,5 km/h (1 Bft) O-NO 67 6,6 C 8,1 C 3,1 km/h (1 Bft)
01.11.2013 20:30 8,0 C 89 % 1017,6 hPa 0,0 l/m 2,7 km/h (1 Bft) O 90 6,3 C 7,9 C 2,9 km/h (1 Bft)
01.11.2013 20:35 7,9 C 89 % 1017,6 hPa 0,0 l/m 2,4 km/h (1 Bft) NO 45 6,2 C 7,7 C 2,9 km/h (1 Bft)
01.11.2013 20:40 7,8 C 89 % 1017,6 hPa 0,0 l/m 1,4 km/h (1 Bft) O-SO 112 6,1 C 7,6 C 0,0 km/h (0 Bft)
01.11.2013 20:45 7,2 C 89 % 1017,6 hPa 0,0 l/m 0,6 km/h (0 Bft) N-NO 22 5,5 C 7,4 C 0,0 km/h (0 Bft)
01.11.2013 20:50 7,3 C 89 % 1017,4 hPa 0,0 l/m 0,8 km/h (0 Bft) O-SO 112 5,6 C 7,2 C 2,6 km/h (1 Bft)
01.11.2013 20:55 7,6 C 90 % 1017,4 hPa 0,0 l/m 1,8 km/h (1 Bft) O 90 6,1 C 7,3 C 3,9 km/h (1 Bft)
01.11.2013 21:00 8,0 C 89 % 1017,4 hPa 0,0 l/m 2,9 km/h (1 Bft) O-SO 112 6,3 C 7,5 C 4,3 km/h (1 Bft)
01.11.2013 21:05 8,1 C 89 % 1017,4 hPa 0,0 l/m 3,2 km/h (1 Bft) O-NO 67 6,4 C 7,8 C 1,8 km/h (1 Bft)
01.11.2013 21:10 7,6 C 89 % 1017,1 hPa 0,0 l/m 1,8 km/h (1 Bft) N-NO 22 5,9 C 7,7 C 0,0 km/h (0 Bft)
01.11.2013 21:15 7,2 C 89 % 1017,1 hPa 0,0 l/m 0,3 km/h (0 Bft) O-SO 112 5,5 C 7,6 C 0,0 km/h (0 Bft)
01.11.2013 21:20 7,0 C 89 % 1017,1 hPa 0,0 l/m 0,0 km/h (0 Bft) O-SO 112 5,3 C 7,4 C 0,0 km/h (0 Bft)
01.11.2013 21:25 6,9 C 89 % 1017,1 hPa 0,0 l/m 0,0 km/h (0 Bft) O-SO 112 5,2 C 7,2 C 0,0 km/h (0 Bft)
01.11.2013 21:30 6,9 C 90 % 1017,1 hPa 0,0 l/m 0,5 km/h (0 Bft) O-SO 112 5,4 C 7,0 C 0,0 km/h (0 Bft)
01.11.2013 21:35 6,9 C 90 % 1017,1 hPa 0,0 l/m 0,5 km/h (0 Bft) N-NO 22 5,4 C 7,0 C 0,0 km/h (0 Bft)
01.11.2013 21:40 6,6 C 90 % 1017,1 hPa 0,0 l/m 0,2 km/h (0 Bft) O 90 5,1 C 6,9 C 0,0 km/h (0 Bft)
01.11.2013 21:45 6,7 C 90 % 1017,1 hPa 0,0 l/m 0,5 km/h (0 Bft) N-NO 22 5,2 C 6,8 C 0,0 km/h (0 Bft)
01.11.2013 21:50 6,5 C 90 % 1017,1 hPa 0,0 l/m 0,3 km/h (0 Bft) N-NO 22 5,0 C 6,7 C 1,6 km/h (1 Bft)
01.11.2013 21:55 6,5 C 90 % 1017,1 hPa 0,0 l/m 0,3 km/h (0 Bft) O-SO 112 5,0 C 6,6 C 2,6 km/h (1 Bft)
01.11.2013 22:00 6,9 C 90 % 1017,1 hPa 0,0 l/m 1,1 km/h (1 Bft) NO 45 5,4 C 6,6 C 0,0 km/h (0 Bft)
01.11.2013 22:05 6,8 C 90 % 1017,1 hPa 0,0 l/m 1,0 km/h (0 Bft) N-NO 22 5,3 C 6,6 C 0,0 km/h (0 Bft)
01.11.2013 22:10 7,0 C 90 % 1016,9 hPa 0,0 l/m 0,2 km/h (0 Bft) NO 45 5,5 C 6,7 C 0,0 km/h (0 Bft)
01.11.2013 22:15 7,4 C 90 % 1016,9 hPa 0,0 l/m 0,5 km/h (0 Bft) O-SO 112 5,9 C 6,6 C 4,5 km/h (1 Bft)
01.11.2013 22:20 7,6 C 90 % 1016,9 hPa 0,0 l/m 1,0 km/h (0 Bft) N-NO 22 6,1 C 6,8 C 0,0 km/h (0 Bft)
01.11.2013 22:25 7,1 C 90 % 1016,9 hPa 0,0 l/m 1,0 km/h (0 Bft) SO 135 5,6 C 6,7 C 0,0 km/h (0 Bft)
01.11.2013 22:30 6,6 C 90 % 1017,1 hPa 0,0 l/m 0,5 km/h (0 Bft) NO 45 5,1 C 6,5 C 2,1 km/h (1 Bft)
01.11.2013 22:35 6,6 C 90 % 1017,1 hPa 0,0 l/m 0,5 km/h (0 Bft) O-NO 67 5,1 C 6,5 C 0,0 km/h (0 Bft)
01.11.2013 22:40 7,3 C 90 % 1017,1 hPa 0,0 l/m 1,9 km/h (1 Bft) NO 45 5,8 C 6,8 C 3,1 km/h (1 Bft)
01.11.2013 22:45 7,4 C 90 % 1017,1 hPa 0,0 l/m 1,9 km/h (1 Bft) S 180 5,9 C 6,9 C 0,0 km/h (0 Bft)
01.11.2013 22:50 6,4 C 90 % 1017,0 hPa 0,0 l/m 0,6 km/h (0 Bft) W-SW 247 4,9 C 6,6 C 0,0 km/h (0 Bft)
01.11.2013 22:55 6,4 C 90 % 1017,0 hPa 0,0 l/m 0,0 km/h (0 Bft) S-SO 157 4,9 C 6,4 C 0,0 km/h (0 Bft)
01.11.2013 23:00 6,4 C 90 % 1017,0 hPa 0,0 l/m 0,0 km/h (0 Bft) S 180 4,9 C 6,3 C 0,0 km/h (0 Bft)
01.11.2013 23:05 6,4 C 90 % 1017,0 hPa 0,0 l/m 0,0 km/h (0 Bft) W-SW 247 4,9 C 6,4 C 0,0 km/h (0 Bft)
01.11.2013 23:10 6,3 C 90 % 1016,8 hPa 0,0 l/m 0,0 km/h (0 Bft) W-SW 247 4,8 C 6,4 C 0,0 km/h (0 Bft)
01.11.2013 23:15 6,3 C 90 % 1016,8 hPa 0,0 l/m 0,0 km/h (0 Bft) SW 225 4,8 C 6,4 C 0,0 km/h (0 Bft)
01.11.2013 23:20 6,5 C 90 % 1016,8 hPa 0,0 l/m 0,0 km/h (0 Bft) S-SO 157 5,0 C 6,4 C 0,0 km/h (0 Bft)
01.11.2013 23:25 6,6 C 90 % 1016,8 hPa 0,0 l/m 0,0 km/h (0 Bft) S-SO 157 5,1 C 6,4 C 0,0 km/h (0 Bft)
01.11.2013 23:30 6,5 C 90 % 1016,8 hPa 0,0 l/m 0,0 km/h (0 Bft) S-SO 157 5,0 C 6,5 C 0,0 km/h (0 Bft)
01.11.2013 23:35 6,6 C 90 % 1016,8 hPa 0,0 l/m 0,0 km/h (0 Bft) S-SO 157 5,1 C 6,7 C 0,0 km/h (0 Bft)
01.11.2013 23:40 7,0 C 90 % 1016,8 hPa 0,0 l/m 0,0 km/h (0 Bft) S-SO 157 5,5 C 6,9 C 0,0 km/h (0 Bft)
01.11.2013 23:45 7,2 C 90 % 1016,8 hPa 0,0 l/m 0,0 km/h (0 Bft) S-SO 157 5,7 C 7,0 C 0,0 km/h (0 Bft)
01.11.2013 23:50 7,1 C 90 % 1016,5 hPa 0,0 l/m 0,0 km/h (0 Bft) S-SO 157 5,6 C 7,0 C 0,0 km/h (0 Bft)
01.11.2013 23:55 6,9 C 90 % 1016,5 hPa 0,0 l/m 0,0 km/h (0 Bft) S-SO 157 5,4 C 7,0 C 0,0 km/h (0 Bft)
_ Min-Zeit 05:20 12:50 23:55 - 23:55 - - 04:50 04:55 23:55
Minimum _ 1,5 C 70 % 1016,5 hPa - 0,0 km/h (0 Bft) - - 0,8 C 1,1 C 0,0 km/h (0 Bft)
_ Max-Zeit 13:10 07:45 00:00 23:55 20:20 - - 10:50 15:55 19:45
Maximum _ 14,1 C 96 % 1024,1 hPa 0,0 l/m 3,9 km/h
NO (1 Bft)
- - 10,3 C 12,1 C 6,8 km/h
S-SO (2 Bft)
Durchschnitt _ 7,4 C 89 % 1021,0 hPa #0,0 l/m 0,5 km/h (0 Bft) NO - 5,5 C 4,2 C 0,7 km/h (0 Bft)